AO-07 1 07530U 74089B 15232.94775543 -.00000025 00000-0 11483-3 0 9998 2 07530 101.5274 206.6179 0011882 174.7714 191.2039 12.53616036865376 FO-29 1 24278U 96046B 15232.49887008 -.00000013 00000-0 25390-4 0 9993 2 24278 098.5471 192.6152 0349314 264.0875 226.1392 13.53055530938725 SO-33 1 25509U 98061B 15232.44554666 .00000237 00000-0 32509-4 0 9993 2 25509 031.4332 247.1541 0347857 276.7970 079.3197 14.30040377878621 RS-22 1 27939U 03042A 15232.91447169 .00000229 00000-0 49988-4 0 9998 2 27939 097.8506 031.9577 0013022 177.1158 183.0125 14.66126073635670 HO-68 1 36122U 09072B 15232.84825402 -.00000060 00000-0 -43517-4 0 9990 2 36122 100.1888 275.3314 0007142 335.5216 024.5562 13.16328788272963 AO-73 1 39444U 13066AE 15232.17300475 .00000637 00000-0 88029-4 0 9997 2 39444 097.7253 292.5722 0058181 287.4774 072.0084 14.80402710 92885 EO-79 1 40025U 14033R 15232.80489561 .00000787 00000-0 93315-4 0 9993 2 40025 097.9452 133.1450 0012396 339.5919 020.4800 14.87307271 63391 UO-11 1 14781U 84021B 15232.22354516 .00000283 00000-0 41665-4 0 9996 2 14781 097.7957 287.7109 0007732 213.6242 146.4482 14.82480964691517 AO-16 1 20439U 90005D 15231.83090123 .00000038 00000-0 30150-4 0 9994 2 20439 098.5423 167.0990 0010447 338.9821 041.4065 14.32563273335853 LO-19 1 20442U 90005G 15231.89397917 .00000034 00000-0 28341-4 0 9990 2 20442 098.5131 166.5254 0011139 325.4162 034.6297 14.32754354336065 AO-27 1 22825U 93061C 15232.85504854 .00000029 00000-0 28727-4 0 9991 2 22825 098.7137 182.9995 0009412 115.6983 269.0815 14.29897896142188 IO-26 1 22826U 93061D 15232.89248606 .00000049 00000-0 36145-4 0 9991 2 22826 098.7080 183.1966 0010036 108.4153 251.8121 14.30216734142334 GO-32 1 25397U 98043D 15231.85426266 .00000008 00000-0 22238-4 0 9990 2 25397 098.5245 180.3170 0002194 115.4176 302.8253 14.23556763888854 NO-44 1 26931U 01043C 15231.85295985 -.00000000 00000-0 31869-4 0 9994 2 26931 067.0524 012.8625 0005864 273.5166 086.5265 14.30336141724904 SO-50 1 27607U 02058C 15232.86317452 .00000241 00000-0 54931-4 0 9999 2 27607 064.5564 001.2999 0083023 275.8777 083.2866 14.74816849680822 CO-55 1 27844U 03031E 15232.85480711 .00000097 00000-0 63699-4 0 9992 2 27844 098.6962 240.4615 0010844 111.4601 248.7734 14.21835606629626 CO-57 1 27848U 03031J 15232.49828765 .00000081 00000-0 56831-4 0 9994 2 27848 098.7058 240.0509 0010671 119.2483 034.2064 14.21478077629480 AO-51 1 28375U 04025K 15232.78687649 .00000054 00000-0 28693-4 0 9995 2 28375 098.2952 171.3877 0083577 133.8612 226.9523 14.41686939585806 CP3 1 31129U 07012N 15232.19679065 .00000410 00000-0 97536-4 0 9991 2 31129 097.9867 195.2076 0097768 113.9221 001.6541 14.55905806442437 CO-65 1 32785U 08021C 15232.98095071 .00000618 00000-0 74767-4 0 9998 2 32785 097.6436 274.1425 0012690 206.7072 201.8613 14.87015611395865 PRISM 1 33493U 09002B 15232.81552712 .00001728 00000-0 16938-3 0 9995 2 33493 098.2471 073.3719 0017141 115.2312 245.0665 14.93593379356223 SOHLA-1 1 33496U 09002E 15232.23264300 .00000159 00000-0 33951-4 0 9999 2 33496 098.2206 000.6894 0005552 331.2334 092.7010 14.71409852352591 TISAT-1 1 36799U 10035E 15232.88835250 .00001098 00000-0 12347-3 0 9993 2 36799 098.0188 334.0357 0012733 001.6493 138.4547 14.88754743276585 STUDSAT 1 36801U 10035G 15232.39572595 .00010065 00000-0 55747-3 0 9998 2 36801 098.0677 355.5152 0004573 279.7121 080.3593 15.14032576277683 ALMASAT-1 1 38078U 12006B 15231.85846858 .00027921 33836-5 46626-3 0 9995 2 38078 069.4534 079.5631 0467416 169.5201 191.6102 14.81776885184460 CUBEBUG-1 1 39153U 13018D 15232.88407248 .00000557 00000-0 81791-4 0 9995 2 39153 098.0156 317.0620 0018237 047.7530 312.5224 14.79357168125040 ESTCUBE-1 1 39161U 13021C 15232.88013264 .00000543 00000-0 95961-4 0 9998 2 39161 098.0708 315.2401 0010867 105.3725 254.8671 14.71266290122753 DUCHIFAT-1 1 40021U 14033M 15232.79032071 .00000941 00000-0 10789-3 0 9992 2 40021 097.9472 133.5743 0013098 339.6644 020.4049 14.88262613 63413 NANOSATCBR1 1 40024U 14033Q 15232.66470479 .00000836 00000-0 97596-4 0 9994 2 40024 097.9453 133.1790 0012277 339.6406 020.4319 14.87816614 63388 DTUSAT-2 1 40030U 14033W 15232.71190137 .00000647 00000-0 78604-4 0 9996 2 40030 097.9439 132.7441 0011635 333.3661 026.6956 14.86932468 63366 ANTELSAT 1 40034U 14033AA 15232.92393912 .00000730 00000-0 11914-3 0 9992 2 40034 097.9358 123.5216 0058748 272.8450 086.6027 14.72850333 62827 MET-2/21 1 22782U 93055A 15232.44312638 .00000067 00000-0 47285-4 0 9990 2 22782 082.5498 192.6791 0023261 137.9416 338.6847 13.83773589109484 OKEAN-4 1 23317U 94066A 15232.92415641 .00000597 00000-0 63932-4 0 9994 2 23317 082.5379 024.6099 0021535 113.7338 054.4445 14.86784771126923 NOAA-14 1 23455U 94089A 15232.44575640 -.00000006 00000-0 19547-4 0 9994 2 23455 098.7496 312.5691 0008392 255.5711 165.9020 14.14049926 64619 NOAA-15 1 25338U 98030A 15232.44464539 .00000059 00000-0 43737-4 0 9995 2 25338 098.7755 231.1325 0010332 348.7242 011.3704 14.25653854897991 RESURS 1 25394U 98043A 15232.49725163 -.00000034 00000-0 36244-5 0 9999 2 25394 098.4708 185.2786 0002589 086.7724 050.7661 14.24457693889438 FENGYUN1 1 25730U 99025A 15232.94413005 .00000850 00000-0 47410-3 0 9993 2 25730 098.9463 197.7967 0020801 325.7232 084.7121 14.13580000838205 OKEAN-0 1 25860U 99039A 15232.03568799 .00000248 00000-0 43403-4 0 9993 2 25860 098.1007 200.2154 0001865 097.6795 308.7774 14.76112009865405 NOAA-16 1 26536U 00055A 15232.52804248 -.00000005 00000-0 21199-4 0 9990 2 26536 098.9373 298.4293 0011344 054.7505 305.4727 14.13105536768748 NOAA-17 1 27453U 02032A 15232.47160055 .00000015 00000-0 24093-4 0 9997 2 27453 098.3455 215.3030 0011754 000.9178 359.2022 14.24895832683819 NOAA-18 1 28654U 05018A 15232.53558960 .00000027 00000-0 40134-4 0 9998 2 28654 099.1879 226.7605 0014965 137.1353 223.0987 14.12227061528154 NOAA-19 1 33591U 09005A 15232.50988668 .00000124 00000-0 92333-4 0 9999 2 33591 098.9946 182.5594 0014019 353.7016 006.3976 14.11967770336569 HUBBLE 1 20580U 90037B 15232.92933912 .00001106 00000-0 59441-4 0 9990 2 20580 028.4703 087.1353 0002830 209.4187 286.3817 15.07629362189590 ISS 1 25544U 98067A 15232.99889321 .00010793 00000-0 16271-3 0 9992 2 25544 051.6437 120.4296 0001757 092.1994 049.4788 15.55348984958123 CO-58 1 28895U 05043F 15232.48983895 .00000337 00000-0 74516-4 0 9991 2 28895 097.8223 056.9071 0018514 093.2700 267.0621 14.62870182522993 FALCON 1 30776U 07006E 15232.55788101 .00003812 00000-0 15034-3 0 9994 2 30776 035.4271 317.3624 0001157 173.7120 311.1122 15.25165125466132 MAST 1 31126U 07012K 15232.86228557 .00000296 00000-0 73355-4 0 9993 2 31126 097.9671 197.9825 0092299 094.0520 296.5481 14.56117034442902 CAPE1 1 31130U 07012P 15232.93910963 .00000356 00000-0 86614-4 0 9994 2 31130 097.9886 195.3712 0098442 113.6392 247.5177 14.55574903442306 COMPASS 1 32787U 08021E 15232.16948328 .00001138 00000-0 12052-3 0 9998 2 32787 097.6459 277.8665 0012736 193.9288 166.1581 14.90977087396041 AAUSAT2 1 32788U 08021F 15232.18524300 .00001147 00000-0 11832-3 0 9996 2 32788 097.6469 279.5050 0012252 189.8862 170.2118 14.92045869396144 DO-64 1 32789U 08021G 15232.14628988 .00002298 00000-0 18664-3 0 9998 2 32789 097.6730 291.3874 0012845 189.2504 223.3639 15.00549712396679 CO-66 1 32791U 08021J 15232.67552674 .00000764 00000-0 86807-4 0 9998 2 32791 097.6456 276.0071 0013354 199.9816 160.0880 14.88973003395916 RS-30 1 32953U 08025A 15232.94626218 .00000010 00000-0 -13620-7 0 9999 2 32953 082.5044 293.9729 0017478 300.9168 059.0198 12.43062715328659 METEOR-M 1 35865U 09049A 15232.75637081 .00000011 00000-0 23861-4 0 9995 2 35865 098.4956 270.7721 0001317 303.1451 191.7526 14.22044427307387 RS-38 1 35869U 09049E 15232.68082990 .00000018 00000-0 27102-4 0 9993 2 35869 098.4868 270.2977 0003793 293.4319 066.6445 14.22306437307422 JUGNU 1 37839U 11058B 15232.23696789 .00000342 00000-0 40665-4 0 9992 2 37839 019.9606 174.2221 0019041 032.8221 117.8405 14.12483018199282 SRMSAT 1 37841U 11058D 15232.04083437 .00000329 00000-0 35749-4 0 9996 2 37841 019.9709 203.4162 0011703 314.3095 108.7615 14.10492284198972 RAX-2 1 37853U 11061D 15232.94710260 .00001786 00000-0 11564-3 0 9999 2 37853 101.7012 115.8471 0194499 246.5588 236.8734 14.96697100206791 AUBIESAT 1 37854U 11061E 15232.48400786 .00001921 00000-0 12037-3 0 9995 2 37854 101.7049 119.0323 0184878 241.6613 195.1724 14.98880823206850 HRBE 1 37855U 11061F 15232.73108197 .00001432 00000-0 91888-4 0 9994 2 37855 101.7021 117.8089 0194818 244.5690 113.5245 14.97680813206812 HORYU-2 1 38340U 12025D 15232.18089606 .00000628 00000-0 10269-3 0 9996 2 38340 098.3193 203.7861 0010533 251.3979 108.6085 14.74441586174967 RS-40 1 38735U 12041C 15232.84794364 .00000040 00000-0 21992-3 0 9992 2 38735 082.4749 019.6527 0017356 041.8652 318.3753 12.42569844138940 PROITERES 1 38756U 12047B 15232.87808419 .00000396 00000-0 65431-4 0 9992 2 38756 098.2248 333.2739 0013476 090.9958 269.2782 14.75894535158545 BEESAT-3 1 39134U 13015E 15232.87953668 .00003366 00000-0 19970-3 0 9992 2 39134 064.8713 210.4271 0028120 243.5809 116.2429 15.12821606128482 BEESAT-2 1 39136U 13015G 15232.21300151 .00002468 00000-0 15655-3 0 9993 2 39136 064.8718 215.5004 0028382 242.6508 117.1726 15.11079041128336 ZACUBE-1 1 39417U 13066B 15232.84085800 .00000526 00000-0 74789-4 0 9998 2 39417 097.7246 292.9175 0058827 286.3012 073.1736 14.79849309 94192 TRITON-1 1 39427U 13066M 15231.79164711 .00000363 00000-0 67557-4 0 9995 2 39427 097.7096 278.7840 0114642 324.6725 034.6921 14.66758034 93188 DELFIN3XT 1 39428U 13066N 15232.53221125 .00000611 00000-0 10933-3 0 9993 2 39428 097.7102 277.6760 0123019 327.5720 031.7966 14.65572089 93169 GOMX-1 1 39430U 13066Q 15232.78484576 .00000618 00000-0 12316-3 0 9998 2 39430 097.7033 271.2206 0153180 346.7351 012.9825 14.58173208 92790 MO-76 1 39436U 13066W 15232.89357631 .00011693 00000-0 74231-3 0 9996 2 39436 097.7414 309.5245 0020413 240.1062 119.8138 15.08865826 95242 LO-74 1 39440U 13066AA 15232.93669159 .00000455 00000-0 72322-4 0 9991 2 39440 097.7187 287.7959 0080525 299.0662 060.2499 14.74658125 93872 PUCPSAT-1 1 39442U 13066AC 15232.67811498 .00000788 00000-0 89381-4 0 9991 2 39442 097.7348 301.2142 0031465 269.9886 089.7725 14.88799031 93462 SPROUT 1 39770U 14029E 15231.83710584 .00001817 00000-0 22455-3 0 9998 2 39770 097.8740 327.7972 0009570 002.3919 357.7331 14.84007889 67073 POPSAT-HIP1 1 40028U 14033U 15232.91619169 .00001214 00000-0 14107-3 0 9994 2 40028 097.9487 133.3479 0013993 336.3394 023.7174 14.87179316 63400 EO-80 1 40032U 14033Y 15232.79113994 .00000638 00000-0 77756-4 0 9999 2 40032 097.9446 132.8356 0011598 333.0902 026.9711 14.86857883 63375 VELOX-1 1 40057U 14034E 15232.87797461 .00000963 00000-0 14748-3 0 9995 2 40057 098.2150 312.0398 0012158 037.5902 322.6141 14.75997808 61422 DAURIA DX 1 1 40071U 14037C 15232.94464541 .00000425 00000-0 62991-4 0 9999 2 40071 098.3538 307.0137 0009420 038.5772 321.6091 14.80473996 60377 UKUBE-1 1 40074U 14037F 15232.90032162 .00000965 00000-0 12789-3 0 9996 2 40074 098.3555 307.9589 0005656 048.9397 311.2277 14.82359146 60423 HODOYOSHI-1 1 40299U 14070B 15232.93926971 .00002336 00000-0 11250-3 0 9991 2 40299 097.4542 313.6531 0011375 268.0220 146.8913 15.19698200 43657 CHUBUSAT-1 1 40300U 14070C 15232.90267426 .00002297 00000-0 11571-3 0 9996 2 40300 097.4512 312.7165 0020547 269.7600 180.1350 15.18022999 43595 QSAT-EOS 1 40301U 14070D 15232.83812341 .00004324 00000-0 21528-3 0 9997 2 40301 097.4467 311.9350 0030078 270.1854 222.8558 15.17732984 43549 TSUBAME 1 40302U 14070E 15232.93289984 .00002545 00000-0 14358-3 0 9996 2 40302 097.4448 310.4822 0041136 274.5897 133.4209 15.13360701 43460 FIREBIRD FU3 1 40377U 15003B 15232.87331723 .00005834 00000-0 28693-3 0 9998 2 40377 099.1129 278.3324 0156244 042.0030 319.3051 15.08403010 30304 FIREBIRD FU4 1 40378U 15003C 15232.93698046 .00005661 00000-0 27822-3 0 9991 2 40378 099.1130 278.4157 0156529 041.7635 319.5411 15.08408404 30310 GRIFEX 1 40379U 15003D 15232.94069134 .00004724 00000-0 23795-3 0 9997 2 40379 099.1140 278.2584 0157965 043.2672 318.0832 15.07554983 30300 LAMBDA-SAT 1 40458U 98067GB 15136.30676273 .20783109 12527-4 14817-2 0 9995 2 40458 051.6075 233.7697 0010355 318.5347 043.1720 16.39926603 21161 NO-84 1 40654U 15232.45207151 .00007862 00000-0 20225-3 0 00984 2 40654 054.9906 301.4539 0244603 048.0292 314.1094 15.15230309013918 NO-83 1 40655U 15232.42150062 .00013369 00000-0 32966-3 0 01053 2 40655 054.9926 301.2859 0241629 048.0775 314.0449 15.16161225013919 DEORBITSAIL 1 40719U 15032E 15232.03281984 .00001048 00000-0 16451-3 0 9993 2 40719 098.0486 120.9122 0018024 122.4135 237.8729 14.74633050 5947 /EX